| time (UTC) | temp F | wind direction | speed MPH | gust MPH | rain 1hr in | rain 24hr in | rain mn in | humidity % | barometer mb |
| 20260906082053 | 64 | 108 | 4.0 | 10.0 | 0.00 | 0.00 | 0.00 | 18 | 1019.3 |
| 20260906081052 | 65 | 133 | 4.0 | 9.0 | 0.00 | 0.00 | 0.00 | 24 | 1019.3 |
| 20260906080050 | 65 | 126 | 2.0 | 11.0 | 0.00 | 0.00 | 0.00 | 28 | 1019.0 |
| 20260906075017 | 65 | 125 | 4.0 | 12.0 | 0.00 | 0.00 | 0.00 | 34 | 1019.0 |
| 20260906074016 | 66 | 141 | 2.0 | 12.0 | 0.00 | 0.00 | 0.00 | 46 | 1018.7 |
| 20260906072943 | 66 | 131 | 3.0 | 10.0 | 0.00 | 0.00 | 0.00 | 49 | 1018.3 |
| 20260906071911 | 66 | 130 | 3.0 | 13.0 | 0.00 | 0.00 | 0.00 | 52 | 1018.3 |
| 20260906070909 | 66 | 127 | 3.0 | 13.0 | 0.00 | 0.00 | 0.00 | 55 | 1018.0 |
| 20260906065908 | 67 | 132 | 5.0 | 13.0 | 0.00 | 0.00 | 0.00 | 54 | 1018.0 |
| 20260906064906 | 67 | 137 | 4.0 | 13.0 | 0.00 | 0.00 | 0.00 | 54 | 1017.7 |
| 20260906063905 | 67 | 136 | 4.0 | 10.0 | 0.00 | 0.00 | 0.00 | 54 | 1017.7 |
| 20260906062904 | 68 | 130 | 3.0 | 9.0 | 0.00 | 0.00 | 0.00 | 55 | 1017.3 |
| 20260906061902 | 68 | 111 | 4.0 | 9.0 | 0.00 | 0.00 | 0.00 | 52 | 1017.3 |
| 20260906060901 | 69 | 129 | 2.0 | 9.0 | 0.00 | 0.00 | 0.00 | 51 | 1017.4 |
| 20260906055859 | 69 | 114 | 1.0 | 9.0 | 0.00 | 0.00 | 0.00 | 51 | 1017.0 |
| 20260906054858 | 69 | 121 | 3.0 | 9.0 | 0.00 | 0.00 | 0.00 | 49 | 1017.0 |
| 20260906053857 | 70 | 69 | 5.0 | 11.0 | 0.00 | 0.00 | 0.00 | 47 | 1016.7 |
| 20260906052855 | 71 | 103 | 4.0 | 11.0 | 0.00 | 0.00 | 0.00 | 43 | 1016.7 |
| 20260906051853 | 72 | 94 | 4.0 | 9.0 | 0.00 | 0.00 | 0.00 | 42 | 1016.7 |
| 20260906050852 | 72 | 125 | 2.0 | 8.0 | 0.00 | 0.00 | 0.00 | 42 | 1016.4 |
| 20260906045850 | 71 | 24 | 2.0 | 8.0 | 0.00 | 0.00 | 0.00 | 41 | 1016.4 |
| 20260906044848 | 72 | 110 | 2.0 | 7.0 | 0.00 | 0.00 | 0.00 | 42 | 1016.4 |
| 20260906043846 | 72 | 113 | 2.0 | 5.0 | 0.00 | 0.00 | 0.00 | 41 | 1016.0 |
| 20260906042844 | 71 | 131 | 1.0 | 7.0 | 0.00 | 0.00 | 0.00 | 44 | 1016.0 |
| 20260906041811 | 71 | 94 | 2.0 | 7.0 | 0.00 | 0.00 | 0.00 | 43 | 1016.0 |
| 20260906040810 | 72 | 84 | 2.0 | 7.0 | 0.00 | 0.00 | 0.00 | 43 | 1016.0 |
| 20260906035809 | 72 | 114 | 2.0 | 6.0 | 0.00 | 0.00 | 0.00 | 42 | 1016.0 |
| 20260906034807 | 72 | 122 | 3.0 | 8.0 | 0.00 | 0.00 | 0.00 | 42 | 1016.0 |
| 20260906033704 | 72 | 87 | 2.0 | 8.0 | 0.00 | 0.00 | 0.00 | 42 | 1016.0 |
| 20260906032702 | 72 | 117 | 2.0 | 5.0 | 0.00 | 0.00 | 0.00 | 42 | 1016.0 |
| 20260906031701 | 73 | 132 | 2.0 | 9.0 | 0.00 | 0.00 | 0.00 | 42 | 1015.7 |
| 20260906030628 | 73 | 134 | 3.0 | 9.0 | 0.00 | 0.00 | 0.00 | 40 | 1015.7 |
| 20260906025524 | 76 | 94 | 2.0 | 7.0 | 0.00 | 0.00 | 0.00 | 38 | 1015.7 |
| 20260906024522 | 76 | 116 | 1.0 | 6.0 | 0.00 | 0.00 | 0.00 | 36 | 1015.7 |
| 20260906023521 | 76 | 254 | 1.0 | 9.0 | 0.00 | 0.00 | 0.00 | 37 | 1015.7 |
| 20260906022520 | 75 | 286 | 1.0 | 9.0 | 0.00 | 0.00 | 0.00 | 37 | 1016.0 |
| 20260906021518 | 75 | 172 | 1.0 | 8.0 | 0.00 | 0.00 | 0.00 | 36 | 1015.7 |
| 20260906020517 | 75 | 177 | 1.0 | 8.0 | 0.00 | 0.00 | 0.00 | 37 | 1016.0 |
| 20260906015516 | 75 | 175 | 3.0 | 6.0 | 0.00 | 0.00 | 0.00 | 36 | 1016.0 |
| 20260906014515 | 74 | 226 | 1.0 | 5.0 | 0.00 | 0.00 | 0.00 | 38 | 1016.0 |
| 20260906013514 | 73 | 243 | 2.0 | 6.0 | 0.00 | 0.00 | 0.00 | 39 | 1016.0 |
| 20260906012512 | 72 | 286 | 2.0 | 6.0 | 0.00 | 0.00 | 0.00 | 40 | 1016.0 |
| 20260906011440 | 72 | 286 | 2.0 | 7.0 | 0.00 | 0.00 | 0.00 | 39 | 1016.0 |
| 20260906010438 | 72 | 261 | 4.0 | 7.0 | 0.00 | 0.00 | 0.00 | 39 | 1016.0 |
| 20260906005436 | 72 | 250 | 1.0 | 8.0 | 0.00 | 0.00 | 0.00 | 40 | 1016.0 |
| 20260906004435 | 72 | 219 | 1.0 | 8.0 | 0.00 | 0.00 | 0.00 | 40 | 1016.0 |
| 20260906003433 | 72 | 275 | 2.0 | 8.0 | 0.00 | 0.00 | 0.00 | 41 | 1016.0 |
| 20260906002432 | 71 | 280 | 1.0 | 8.0 | 0.00 | 0.00 | 0.00 | 42 | 1016.0 |
| 20260906001430 | 70 | 300 | 2.0 | 8.0 | 0.00 | 0.00 | 0.00 | 43 | 1016.0 |
| 20260906000357 | 70 | 264 | 2.0 | 4.0 | 0.00 | 0.00 | 0.00 | 42 | 1015.7 |
| 20260905235151 | 69 | 263 | 2.0 | 8.0 | 0.00 | 0.00 | 0.00 | 43 | 1016.0 |
| 20260905234149 | 69 | 278 | 2.0 | 8.0 | 0.00 | 0.00 | 0.00 | 44 | 1015.7 |
| 20260905233147 | 68 | 262 | 3.0 | 8.0 | 0.00 | 0.00 | 0.00 | 46 | 1015.7 |
| 20260905232146 | 68 | 271 | 3.0 | 8.0 | 0.00 | 0.00 | 0.00 | 45 | 1015.7 |
| 20260905231144 | 67 | 8 | 1.0 | 10.0 | 0.00 | 0.00 | 0.00 | 48 | 1015.7 |
| 20260905230143 | 67 | 260 | 3.0 | 10.0 | 0.00 | 0.00 | 0.00 | 47 | 1015.7 |
| 20260905225110 | 66 | 241 | 3.0 | 10.0 | 0.00 | 0.00 | 0.00 | 48 | 1015.3 |
| 20260905224037 | 66 | 243 | 4.0 | 8.0 | 0.00 | 0.00 | 0.00 | 47 | 1015.3 |
| 20260905223036 | 65 | 303 | 1.0 | 12.0 | 0.00 | 0.00 | 0.00 | 50 | 1015.3 |
| 20260905222034 | 65 | 268 | 5.0 | 12.0 | 0.00 | 0.00 | 0.00 | 49 | 1015.3 |
| 20260905220931 | 64 | 249 | 3.0 | 9.0 | 0.00 | 0.00 | 0.00 | 51 | 1015.0 |
| 20260905215929 | 63 | 243 | 3.0 | 10.0 | 0.00 | 0.00 | 0.00 | 51 | 1015.0 |
| 20260905214856 | 63 | 269 | 3.0 | 10.0 | 0.00 | 0.00 | 0.00 | 52 | 1014.7 |
| 20260905213855 | 62 | 268 | 2.0 | 10.0 | 0.00 | 0.00 | 0.00 | 52 | 1014.7 |
| 20260905212854 | 62 | 259 | 2.0 | 9.0 | 0.00 | 0.00 | 0.00 | 52 | 1014.3 |
| 20260905211852 | 62 | 269 | 2.0 | 7.0 | 0.00 | 0.00 | 0.00 | 53 | 1014.3 |
| 20260905210850 | 61 | 246 | 1.0 | 6.0 | 0.00 | 0.00 | 0.00 | 54 | 1014.0 |
| 20260905205849 | 61 | 251 | 2.0 | 6.0 | 0.00 | 0.00 | 0.00 | 56 | 1013.6 |
| 20260905204816 | 61 | 257 | 1.0 | 7.0 | 0.00 | 0.00 | 0.00 | 55 | 1013.6 |
| 20260905203815 | 60 | 272 | 1.0 | 7.0 | 0.00 | 0.00 | 0.00 | 55 | 1013.6 |
| 20260905202812 | 60 | 232 | 2.0 | 11.0 | 0.00 | 0.00 | 0.00 | 55 | 1013.3 |
| 20260905201811 | 60 | 260 | 2.0 | 11.0 | 0.00 | 0.00 | 0.00 | 55 | 1013.0 |
| 20260905200810 | 60 | 277 | 3.0 | 9.0 | 0.00 | 0.00 | 0.00 | 55 | 1012.6 |
| 20260905195737 | 60 | 255 | 3.0 | 9.0 | 0.00 | 0.00 | 0.00 | 54 | 1012.6 |
| 20260905194735 | 60 | 266 | 2.0 | 7.0 | 0.00 | 0.00 | 0.00 | 54 | 1012.6 |
| 20260905193734 | 60 | 229 | 1.0 | 7.0 | 0.00 | 0.00 | 0.00 | 53 | 1012.6 |
| 20260905192733 | 60 | 259 | 2.0 | 3.0 | 0.00 | 0.00 | 0.00 | 53 | 1012.3 |
| 20260905191731 | 61 | 252 | 2.0 | 4.0 | 0.00 | 0.00 | 0.00 | 52 | 1012.3 |
| 20260905190729 | 61 | 255 | 1.0 | 4.0 | 0.00 | 0.00 | 0.00 | 51 | 1012.3 |
| 20260905185727 | 61 | 197 | 1.0 | 3.0 | 0.00 | 0.00 | 0.00 | 51 | 1012.3 |
| 20260905184725 | 62 | 261 | 1.0 | 4.0 | 0.00 | 0.00 | 0.00 | 50 | 1011.6 |
| 20260905183724 | 62 | 273 | 2.0 | 5.0 | 0.00 | 0.00 | 0.00 | 50 | 1011.3 |
| 20260905182722 | 62 | 253 | 3.0 | 5.0 | 0.00 | 0.00 | 0.00 | 49 | 1011.3 |
| 20260905181721 | 62 | 275 | 2.0 | 5.0 | 0.00 | 0.00 | 0.00 | 49 | 1011.0 |
| 20260905180720 | 63 | 275 | 1.0 | 10.0 | 0.00 | 0.00 | 0.00 | 49 | 1010.3 |
| 20260905175718 | 63 | 268 | 3.0 | 10.0 | 0.00 | 0.00 | 0.00 | 48 | 1010.3 |
| 20260905174716 | 63 | 258 | 2.0 | 12.0 | 0.00 | 0.00 | 0.00 | 49 | 1010.0 |
| 20260905173715 | 64 | 247 | 3.0 | 12.0 | 0.00 | 0.00 | 0.00 | 50 | 1010.3 |
| 20260905172713 | 64 | 236 | 4.0 | 7.0 | 0.00 | 0.00 | 0.00 | 51 | 1010.3 |
| 20260905171712 | 64 | 248 | 1.0 | 3.0 | 0.00 | 0.00 | 0.00 | 52 | 1010.3 |
| 20260905170639 | 65 | 249 | 1.0 | 7.0 | 0.00 | 0.00 | 0.00 | 51 | 1010.0 |
| 20260905165637 | 65 | 245 | 2.0 | 7.0 | 0.00 | 0.00 | 0.00 | 50 | 1010.3 |
| 20260905164636 | 65 | 258 | 1.0 | 4.0 | 0.00 | 0.00 | 0.00 | 51 | 1010.3 |
| 20260905163634 | 65 | 260 | 2.0 | 4.0 | 0.00 | 0.00 | 0.00 | 51 | 1010.3 |
| 20260905162633 | 66 | 216 | 1.0 | 5.0 | 0.00 | 0.00 | 0.00 | 52 | 1010.3 |
| 20260905161632 | 66 | 252 | 3.0 | 8.0 | 0.00 | 0.00 | 0.00 | 51 | 1010.3 |
| 20260905160630 | 66 | 254 | 3.0 | 9.0 | 0.00 | 0.00 | 0.00 | 51 | 1010.3 |
| 20260905155557 | 66 | 249 | 3.0 | 9.0 | 0.00 | 0.00 | 0.00 | 53 | 1010.3 |
| 20260905154556 | 67 | 271 | 2.0 | 6.0 | 0.00 | 0.00 | 0.00 | 54 | 1010.3 |
| 20260905153523 | 67 | 235 | 2.0 | 6.0 | 0.00 | 0.00 | 0.00 | 57 | 1010.3 |
| 20260905152521 | 67 | 262 | 2.0 | 7.0 | 0.00 | 0.00 | 0.00 | 57 | 1010.0 |
| 20260905151449 | 67 | 249 | 2.0 | 10.0 | 0.00 | 0.00 | 0.00 | 58 | 1010.0 |
| 20260905150447 | 67 | 197 | 2.0 | 3.0 | 0.00 | 0.00 | 0.00 | 57 | 1009.7 |
| 20260905145445 | 66 | 245 | 1.0 | 3.0 | 0.00 | 0.00 | 0.00 | 56 | 1009.3 |
| 20260905144443 | 67 | 217 | 0.0 | 1.0 | 0.00 | 0.00 | 0.00 | 55 | 1009.0 |
| 20260905143441 | 67 | 217 | 0.0 | 2.0 | 0.00 | 0.00 | 0.00 | 56 | 1009.0 |
| 20260905142409 | 68 | 217 | 1.0 | 2.0 | 0.00 | 0.00 | 0.00 | 57 | 1009.0 |
| 20260905141407 | 68 | 218 | 0.0 | 2.0 | 0.00 | 0.00 | 0.00 | 57 | 1008.6 |
| 20260905140406 | 68 | 206 | 0.0 | 3.0 | 0.00 | 0.00 | 0.00 | 57 | 1008.6 |
| 20260905135405 | 69 | 248 | 2.0 | 4.0 | 0.00 | 0.00 | 0.00 | 57 | 1008.6 |
| 20260905134301 | 69 | 257 | 4.0 | 4.0 | 0.00 | 0.00 | 0.00 | 57 | 1008.6 |
| 20260905133300 | 69 | 42 | 2.0 | 4.0 | 0.00 | 0.00 | 0.00 | 57 | 1008.3 |
| 20260905132258 | 69 | 253 | 1.0 | 3.0 | 0.00 | 0.00 | 0.00 | 57 | 1008.3 |
| 20260905131123 | 69 | 258 | 2.0 | 3.0 | 0.00 | 0.00 | 0.00 | 57 | 1008.3 |
| 20260905130121 | 68 | 52 | 2.0 | 2.0 | 0.00 | 0.00 | 0.00 | 56 | 1008.0 |
| 20260905125120 | 69 | 53 | 0.0 | 2.0 | 0.00 | 0.00 | 0.00 | 54 | 1007.6 |
| 20260905124119 | 69 | 54 | 1.0 | 4.0 | 0.00 | 0.00 | 0.00 | 54 | 1007.6 |
| 20260905123117 | 69 | 288 | 2.0 | 4.0 | 0.00 | 0.00 | 0.00 | 54 | 1007.6 |
| 20260905122107 | 70 | 346 | 1.0 | 3.0 | 0.00 | 0.00 | 0.00 | 54 | 1007.6 |
| 20260905121105 | 70 | 13 | 1.0 | 4.0 | 0.00 | 0.00 | 0.00 | 55 | 1007.6 |
| 20260905120104 | 70 | 339 | 1.0 | 6.0 | 0.00 | 0.00 | 0.00 | 55 | 1007.6 |
| 20260905115102 | 70 | 294 | 2.0 | 6.0 | 0.00 | 0.00 | 0.00 | 55 | 1007.6 |
| 20260905114100 | 70 | 353 | 1.0 | 6.0 | 0.00 | 0.00 | 0.00 | 55 | 1007.6 |
| 20260905113028 | 71 | 351 | 1.0 | 6.0 | 0.00 | 0.00 | 0.00 | 55 | 1008.0 |
| 20260905112026 | 71 | 2 | 1.0 | 4.0 | 0.00 | 0.00 | 0.00 | 56 | 1007.6 |
| 20260905111025 | 71 | 1 | 2.0 | 5.0 | 0.00 | 0.00 | 0.00 | 56 | 1007.6 |
| 20260905105952 | 71 | 331 | 1.0 | 8.0 | 0.00 | 0.00 | 0.00 | 56 | 1007.6 |
| 20260905104951 | 72 | 325 | 1.0 | 8.0 | 0.00 | 0.00 | 0.00 | 56 | 1007.6 |
| 20260905103919 | 72 | 340 | 1.0 | 7.0 | 0.00 | 0.00 | 0.00 | 56 | 1007.6 |
| 20260905102917 | 72 | 332 | 2.0 | 8.0 | 0.00 | 0.00 | 0.00 | 57 | 1007.6 |
| 20260905101916 | 73 | 332 | 3.0 | 8.0 | 0.00 | 0.00 | 0.00 | 57 | 1007.6 |
| 20260905100914 | 73 | 311 | 2.0 | 8.0 | 0.00 | 0.00 | 0.00 | 56 | 1007.6 |
| 20260905095912 | 73 | 306 | 2.0 | 8.0 | 0.00 | 0.00 | 0.00 | 56 | 1007.3 |
| 20260905094911 | 74 | 333 | 2.0 | 8.0 | 0.00 | 0.00 | 0.00 | 55 | 1007.3 |
| 20260905093806 | 74 | 338 | 2.0 | 8.0 | 0.00 | 0.00 | 0.00 | 54 | 1007.2 |
| 20260905092805 | 74 | 355 | 2.0 | 7.0 | 0.00 | 0.00 | 0.00 | 52 | 1007.6 |
| 20260905091733 | 74 | 358 | 2.0 | 11.0 | 0.00 | 0.00 | 0.00 | 51 | 1007.2 |
| 20260905090731 | 74 | 302 | 3.0 | 11.0 | 0.00 | 0.00 | 0.00 | 50 | 1007.2 |
| 20260905085730 | 74 | 269 | 2.0 | 11.0 | 0.00 | 0.00 | 0.00 | 50 | 1007.2 |
| 20260905084728 | 75 | 341 | 2.0 | 16.0 | 0.00 | 0.00 | 0.00 | 48 | 1007.2 |
| 20260905083624 | 75 | 340 | 5.0 | 21.0 | 0.00 | 0.00 | 0.00 | 48 | 1006.9 |
| 20260905082551 | 74 | 353 | 5.0 | 22.0 | 0.00 | 0.00 | 0.00 | 49 | 1006.5 |